User: anonymous
Location: Dover
(39.1580°N, 75.5250°W)
Time: 01:35:56
(UTC-04:00)
Language:

Cosmos 1437 Rocket - Orbit

View from above orbital plane
View from above orbital plane
View from above satellite
View from above satellite

Ground track
Ground track

The orbit data is extracted from the following two-line orbital elements,

1 13771U 83003B   14202.95021882  .00000452  00000-0  28893-4 0   803
2 13771 081.1578 144.4486 0028914 275.1673 084.6251 15.06346880713780
Epoch (UTC): 21 July 2014 22:48:18
Eccentricity: 0.0028914
inclination: 81.1578°
perigee height: 527 km
apogee height: 567 km
right ascension of ascending node: 144.4486°
argument of perigee: 275.1673°
revolutions per day: 15.06346880
mean anomaly at epoch: 84.6251°
orbit number at epoch: 71378

The dashed part of the orbit path shows where the satellite is in the earth's shadow,  

DLR